• In Belarus
  • List of Countries
  • For 7 days
  • Water Temperature
  • Satellite Maps
  • Weather Map
  • Weather Widgets
  • user-avatar
    Login

    Hourly Weather Córdoba

    Today, 17 February, Saturday

    Time Temperature Precipitation Wind Pressure Humidity
    00:00 +27°C° 0.2 mm 2 mps 724 mmHg 61%
    01:00 +26°C° 0.2 mm 2 mps 724 mmHg 63%
    02:00 +25°C° 0 mm 1 mps 723 mmHg 68%
    03:00 +24°C° 0.3 mm 1 mps 723 mmHg 69%
    04:00 +24°C° 0.3 mm 1 mps 723 mmHg 70%
    05:00 +24°C° 0.3 mm 1 mps 723 mmHg 71%
    06:00 +25°C° 0.1 mm 1 mps 723 mmHg 66%
    07:00 +27°C° 0.1 mm 1 mps 724 mmHg 61%
    08:00 +29°C° 0 mm 3 mps 724 mmHg 57%
    09:00 +30°C° 0.2 mm 3 mps 724 mmHg 52%
    10:00 +33°C° 0.2 mm 3 mps 724 mmHg 46%
    11:00 +35°C° 0.2 mm 3 mps 723 mmHg 40%
    12:00 +35°C° 0.1 mm 3 mps 723 mmHg 39%
    13:00 +35°C° 0.1 mm 3 mps 723 mmHg 38%
    14:00 +35°C° 0.1 mm 2 mps 722 mmHg 37%
    15:00 +35°C° 0.1 mm 3 mps 722 mmHg 38%
    16:00 +35°C° 0.1 mm 3 mps 721 mmHg 38%
    17:00 +34°C° 0.1 mm 3 mps 721 mmHg 39%
    18:00 +33°C° 0.2 mm 3 mps 721 mmHg 43%
    19:00 +30°C° 0.2 mm 2 mps 720 mmHg 48%
    20:00 +28°C° 0.2 mm 2 mps 720 mmHg 52%
    21:00 +28°C° 0 mm 2 mps 720 mmHg 54%
    22:00 +27°C° 0 mm 2 mps 720 mmHg 57%
    23:00 +26°C° 0 mm 2 mps 720 mmHg 59%

    Tomorrow, 18 February, Sunday

    Time Temperature Precipitation Wind Pressure Humidity
    00:00 +26°C° 0 mm 2 mps 720 mmHg 61%
    01:00 +25°C° 0 mm 2 mps 720 mmHg 63%
    02:00 +25°C° 0 mm 2 mps 719 mmHg 65%
    03:00 +24°C° 0 mm 1 mps 719 mmHg 66%
    04:00 +24°C° 0 mm 1 mps 719 mmHg 66%
    05:00 +24°C° 0 mm 1 mps 719 mmHg 67%
    06:00 +26°C° 0 mm 2 mps 719 mmHg 62%
    07:00 +27°C° 0 mm 2 mps 719 mmHg 57%
    08:00 +29°C° 0 mm 3 mps 720 mmHg 53%
    09:00 +31°C° 0.1 mm 3 mps 719 mmHg 47%
    10:00 +33°C° 0.1 mm 3 mps 719 mmHg 42%
    11:00 +35°C° 0.1 mm 4 mps 719 mmHg 36%
    12:00 +36°C° 0.1 mm 4 mps 718 mmHg 34%
    13:00 +37°C° 0.1 mm 3 mps 718 mmHg 31%
    14:00 +38°C° 0.1 mm 3 mps 717 mmHg 29%
    15:00 +37°C° 0.1 mm 3 mps 717 mmHg 31%
    16:00 +36°C° 0.1 mm 3 mps 716 mmHg 34%
    17:00 +35°C° 0.1 mm 3 mps 716 mmHg 37%
    18:00 +33°C° 1.2 mm 3 mps 716 mmHg 45%
    19:00 +30°C° 1.2 mm 2 mps 716 mmHg 53%
    20:00 +28°C° 1.2 mm 1 mps 716 mmHg 61%
    21:00 +27°C° 1.3 mm 1 mps 716 mmHg 64%
    22:00 +26°C° 1.3 mm 1 mps 716 mmHg 67%
    23:00 +25°C° 1.3 mm 2 mps 717 mmHg 70%

    Day after tomorrow, 19 February, Monday

    Time Temperature Precipitation Wind Pressure Humidity
    00:00 +25°C° 0.1 mm 2 mps 716 mmHg 70%
    01:00 +25°C° 0.1 mm 2 mps 716 mmHg 71%
    02:00 +25°C° 0.1 mm 2 mps 716 mmHg 72%
    03:00 +24°C° 0.4 mm 1 mps 716 mmHg 73%
    04:00 +24°C° 0.4 mm 1 mps 716 mmHg 74%
    05:00 +24°C° 0.4 mm 1 mps 716 mmHg 75%
    06:00 +25°C° 0.2 mm 1 mps 716 mmHg 72%
    07:00 +26°C° 0.2 mm 1 mps 717 mmHg 68%
    08:00 +28°C° 0.2 mm 1 mps 718 mmHg 64%
    09:00 +29°C° 0.1 mm 2 mps 718 mmHg 57%
    10:00 +31°C° 0.1 mm 2 mps 718 mmHg 50%
    11:00 +33°C° 0.1 mm 3 mps 718 mmHg 43%
    12:00 +34°C° 0.1 mm 3 mps 718 mmHg 42%
    13:00 +34°C° 0.1 mm 3 mps 717 mmHg 41%
    14:00 +35°C° 0.1 mm 4 mps 717 mmHg 41%
    15:00 +34°C° 0.1 mm 4 mps 717 mmHg 41%
    16:00 +34°C° 0.1 mm 4 mps 716 mmHg 42%
    17:00 +34°C° 0.1 mm 4 mps 716 mmHg 43%
    18:00 +31°C° 0.4 mm 3 mps 716 mmHg 51%
    19:00 +29°C° 0.4 mm 3 mps 717 mmHg 58%
    20:00 +27°C° 0.4 mm 2 mps 717 mmHg 65%
    21:00 +26°C° 1.1 mm 2 mps 717 mmHg 69%
    22:00 +25°C° 1.1 mm 2 mps 717 mmHg 74%
    23:00 +24°C° 1.1 mm 2 mps 718 mmHg 78%

    20 February, Tuesday

    Time Temperature Precipitation Wind Pressure Humidity
    00:00 +23°C° 0.8 mm 2 mps 718 mmHg 80%
    01:00 +22°C° 0.8 mm 3 mps 718 mmHg 82%
    02:00 +22°C° 0.8 mm 3 mps 718 mmHg 83%
    03:00 +23°C° 0.1 mm 2 mps 718 mmHg 81%
    04:00 +23°C° 0.1 mm 2 mps 718 mmHg 79%
    05:00 +23°C° 0.1 mm 2 mps 718 mmHg 77%
    06:00 +24°C° 0.5 mm 2 mps 719 mmHg 75%
    07:00 +25°C° 0.5 mm 2 mps 719 mmHg 72%
    08:00 +25°C° 0.5 mm 3 mps 720 mmHg 70%
    09:00 +26°C° 0.4 mm 3 mps 720 mmHg 67%
    10:00 +27°C° 0.4 mm 4 mps 721 mmHg 63%
    11:00 +27°C° 0.4 mm 4 mps 721 mmHg 60%
    12:00 +28°C° 0.3 mm 4 mps 721 mmHg 56%
    13:00 +29°C° 0.3 mm 4 mps 720 mmHg 53%
    14:00 +30°C° 0.3 mm 4 mps 720 mmHg 49%
    15:00 +32°C° 0.3 mm 4 mps 720 mmHg 47%
    16:00 +32°C° 0.3 mm 4 mps 720 mmHg 45%
    17:00 +33°C° 0.3 mm 4 mps 720 mmHg 43%
    18:00 +30°C° 0.2 mm 4 mps 720 mmHg 50%
    19:00 +28°C° 0.2 mm 4 mps 721 mmHg 57%
    20:00 +26°C° 0.2 mm 4 mps 721 mmHg 64%
    21:00 +25°C° 0.1 mm 3 mps 722 mmHg 67%
    22:00 +24°C° 0.1 mm 3 mps 723 mmHg 70%
    23:00 +21°C° 0.1 mm 3 mps 723 mmHg 73%

    21 February, Wednesday

    Time Temperature Precipitation Wind Pressure Humidity
    00:00 +21°C° 0 mm 3 mps 723 mmHg 72%
    01:00 +20°C° 0 mm 3 mps 723 mmHg 72%
    02:00 +20°C° 0 mm 3 mps 724 mmHg 71%
    03:00 +19°C° 0 mm 3 mps 724 mmHg 70%
    04:00 +19°C° 0 mm 3 mps 724 mmHg 68%
    05:00 +19°C° 0 mm 2 mps 724 mmHg 67%
    06:00 +20°C° 0 mm 2 mps 724 mmHg 62%
    07:00 +23°C° 0 mm 2 mps 725 mmHg 56%
    08:00 +24°C° 0 mm 2 mps 726 mmHg 51%
    09:00 +26°C° 0 mm 2 mps 726 mmHg 45%
    10:00 +29°C° 0 mm 2 mps 726 mmHg 40%
    11:00 +31°C° 0 mm 2 mps 726 mmHg 34%
    12:00 +32°C° 0 mm 2 mps 725 mmHg 31%
    13:00 +33°C° 0 mm 3 mps 724 mmHg 28%
    14:00 +34°C° 0 mm 3 mps 724 mmHg 25%
    15:00 +34°C° 0 mm 4 mps 723 mmHg 26%
    16:00 +34°C° 0 mm 4 mps 722 mmHg 27%
    17:00 +34°C° 0 mm 4 mps 722 mmHg 28%
    18:00 +30°C° 0 mm 3 mps 722 mmHg 34%
    19:00 +28°C° 0 mm 3 mps 722 mmHg 39%
    20:00 +25°C° 0 mm 2 mps 722 mmHg 45%
    21:00 +24°C° 0 mm 2 mps 722 mmHg 47%
    22:00 +24°C° 0 mm 2 mps 722 mmHg 48%
    23:00 +23°C° 0 mm 2 mps 722 mmHg 50%

    22 February, Thursday

    Time Temperature Precipitation Wind Pressure Humidity
    00:00 +23°C° 0 mm 2 mps 722 mmHg 51%
    01:00 +22°C° 0 mm 1 mps 722 mmHg 51%
    02:00 +22°C° 0 mm 1 mps 722 mmHg 52%
    03:00 +21°C° 0 mm 1 mps 722 mmHg 54%
    04:00 +21°C° 0 mm 1 mps 722 mmHg 55%
    05:00 +20°C° 0 mm 1 mps 722 mmHg 57%
    06:00 +21°C° 0 mm 2 mps 723 mmHg 54%
    07:00 +24°C° 0 mm 2 mps 723 mmHg 52%
    08:00 +25°C° 0 mm 3 mps 724 mmHg 49%
    09:00 +28°C° 0 mm 3 mps 724 mmHg 45%
    10:00 +30°C° 0 mm 4 mps 724 mmHg 40%
    11:00 +33°C° 0 mm 5 mps 724 mmHg 36%
    12:00 +34°C° 0 mm 5 mps 723 mmHg 32%
    13:00 +35°C° 0 mm 5 mps 723 mmHg 29%
    14:00 +36°C° 0 mm 5 mps 722 mmHg 25%
    15:00 +36°C° 0 mm 5 mps 721 mmHg 25%
    16:00 +35°C° 0 mm 5 mps 721 mmHg 25%
    17:00 +35°C° 0 mm 6 mps 720 mmHg 26%
    18:00 +32°C° 0 mm 5 mps 721 mmHg 29%
    19:00 +29°C° 0 mm 4 mps 721 mmHg 33%
    20:00 +26°C° 0 mm 3 mps 721 mmHg 37%
    21:00 +25°C° 0 mm 2 mps 721 mmHg 38%
    22:00 +24°C° 0 mm 2 mps 721 mmHg 40%
    23:00 +23°C° 0 mm 2 mps 721 mmHg 41%
    Show more